Regional Weather Roundup
Issued by NWS

Home | Current Version | Previous Version | Graphics & Text | Print | Product List | Glossary On
Versions: 1 2 3 4 5 6 7 8 9 10 11 12 13 14 15 16 17 18 19 20 21 22 23 24 25 26 27 28 29 30 31 32 33 34 35 36 37 38 39 40 41 42 43 44 45 46 47 48 49 50
689
ASUS44 KJAN 012310
RWRMS

MISSISSIPPI HOURLY WEATHER ROUNDUP
NATIONAL WEATHER SERVICE JACKSON MS
500 PM CST SUN MAR 01 2015

NOTE: "FAIR: INDICATES FEW OR NO CLOUDS BELOW 12,000 FEET WITH NO
SIGNIFICANT WEATHER AND/OR OBSTRUCTIONS TO VISIBILITY.

MSZ001>002-007>008-010>013-018>021-025>028-034>036-020000-
NORTHWEST MISSISSIPPI

CITY           SKY/WX    TMP DP  RH WIND       PRES   REMARKS
CLARKSDALE     CLOUDY    43  43 100 N7        30.32R VSB 3/4
CLEVELAND      CLOUDY    43  43 100 N6        30.30R FOG
GREENWOOD        N/A    N/A N/A N/A MISG      30.27R
GREENVILLE     LGT RAIN  44  42  93 N8        30.28S VSB 3/4
OLIVE BRANCH   LGT RAIN  45  45 100 N6        30.31R FOG
OXFORD         CLOUDY    50  50 100 CALM      30.31R FOG
TUNICA         LGT RAIN  41  41 100 N8        30.33S
$$

MSZ003>006-009-014>017-022>024-029>033-037>039-020000-
NORTHEAST MISSISSIPPI

CITY           SKY/WX    TMP DP  RH WIND       PRES   REMARKS
COLUMBUS AFB   CLOUDY    55  54  94 SE7       30.28F
CORINTH        DRIZZLE   54  50  87 CALM      30.28S
GOLDN TRIANGLE CLOUDY    54  50  87 SE6       30.29R
STARKVILLE     CLOUDY    52  52 100 SE3       30.29F FOG
TUPELO         RAIN      53  50  89 S5        30.29S FOG
$$

MSZ040-058-020000-
CENTRAL MISSISSIPPI

CITY           SKY/WX    TMP DP  RH WIND       PRES   REMARKS
JACKSON INTL   CLOUDY    58  57  97 SE10      30.25F
JACKSON HAWKNS CLOUDY    58  57  97 S3        30.27S
MERIDIAN KEY   LGT RAIN  55  54  96 CALM      30.32R
MERIDIAN NAS   RAIN      55  53  93 CALM      30.33R FOG
VICKSBURG      CLOUDY    58  56  93 E5        30.24F FOG
$$

MSZ059>079-020000-
SOUTH MISSISSIPPI

CITY           SKY/WX    TMP DP  RH WIND       PRES   REMARKS
BROOKHAVEN     LGT RAIN  59  59 100 E3        30.29S
HATTIESBURG    CLOUDY    61  58  90 E8        30.29S
MCCOMB         LGT RAIN  62  61  96 E3        30.26S FOG
NATCHEZ        CLOUDY    61  61 100 E8        30.23F
PINE BELT      CLOUDY    59  55  88 E3        30.30R
$$

MSZ080>082-020000-
COASTAL MISSISSIPPI

CITY           SKY/WX    TMP DP  RH WIND       PRES   REMARKS
BAY ST LOUIS   CLOUDY    61  55  82 E6        30.27S FOG
BILOXI         NOT AVBL
PASCAGOULA     CLOUDY    60  57  89 E6        30.29R FOG
GULFPORT       CLOUDY    62  59  90 E8        30.27S
$$



USA.gov is the U.S. government's official web portal to all federal, state and local government web resources and services.